This is the latest recevied weather packets stored in our database for station/object N1ORT. If no packets are shown the sender has not sent any weather packets the latest 10 day(s).
| Time | Temp. | Humidity | Pressure | Rain* | Wind** | Luminosity | Snow |
|---|---|---|---|---|---|---|---|
| 1777904684 | 17.22° C | 40% | 1007.1 hPa | 0 mm | - | 817 W/m² | - |
| 1777904380 | 17.78° C | 42% | 1007 hPa | 0 mm | - | 801 W/m² | - |
| 1777904077 | 16.67° C | 40% | 1007 hPa | 0 mm | - | 787 W/m² | - |
| 1777903774 | 16.11° C | 42% | 1007.1 hPa | 0 mm | - | 777 W/m² | - |
| 1777903470 | 16.11° C | 40% | 1007.2 hPa | 0 mm | - | 763 W/m² | - |
| 1777903167 | 16.11° C | 41% | 1007.2 hPa | 0 mm | - | 743 W/m² | - |
| 1777902863 | 16.11° C | 42% | 1007.3 hPa | 0 mm | - | 727 W/m² | - |
| 1777902561 | 16.11° C | 43% | 1007.3 hPa | 0 mm | - | 713 W/m² | - |
| 1777902257 | 16.11° C | 44% | 1007.3 hPa | 0 mm | - | 701 W/m² | - |
| 1777901955 | 16.11° C | 43% | 1007.3 hPa | 0 mm | - | 494 W/m² | - |
| 1777901653 | 15° C | 45% | 1007.3 hPa | 0 mm | - | 702 W/m² | - |
| 1777901350 | 15° C | 44% | 1007.5 hPa | 0 mm | - | 293 W/m² | - |
| 1777901047 | 15° C | 46% | 1007.4 hPa | 0 mm | - | 411 W/m² | - |
| 1777900745 | 15° C | 44% | 1007.4 hPa | 0 mm | - | 629 W/m² | - |
| 1777900442 | 14.44° C | 45% | 1007.6 hPa | 0 mm | - | 603 W/m² | - |
| 1777900139 | 14.44° C | 45% | 1007.7 hPa | 0 mm | - | 583 W/m² | - |
| 1777899835 | 14.44° C | 46% | 1007.6 hPa | 0 mm | - | 576 W/m² | - |
| 1777899532 | 14.44° C | 46% | 1007.7 hPa | 0 mm | - | 594 W/m² | - |
| 1777899230 | 13.89° C | 48% | 1007.7 hPa | 0 mm | - | 534 W/m² | - |
| 1777898927 | 13.89° C | 48% | 1007.7 hPa | 0 mm | - | 516 W/m² | - |
| 1777898624 | 13.33° C | 50% | 1008.1 hPa | 0 mm | - | 499 W/m² | - |
| 1777898321 | 13.33° C | 49% | 1008 hPa | 0 mm | - | 483 W/m² | - |
| 1777898018 | 12.78° C | 51% | 1008.1 hPa | 0 mm | - | 464 W/m² | - |
| 1777897714 | 12.78° C | 53% | 1008.2 hPa | 0 mm | - | 390 W/m² | - |
| 1777897411 | 12.22° C | 53% | 1008.1 hPa | 0 mm | - | 375 W/m² | - |
* Rain latest hour (hover to see other rain measurements)
** Current wind speed in m/s (hover to see current wind gust speed)